Temperature
12 12 12 12 12 11 11 11 11 11 11 11 11 11 11 10 10 10 10 10 10 11 11 11 12 13 13 13 13 13 14 14 15 15 15 14 14 14 14 14 14 14 15
12 12 11 11 11 11 11 11 11 11 11 10 10 10 10 10 10 10 10 10 10 10 10 10 11 11 12 12 13 13 13 13 14 14 14 14 14 14 14 14 14 14 14
11 11 11 11 10 10 10 10 10 10 10 10 10 10 10 10 10 10 10 10 10 10 10 10 10 10 11 11 12 12 13 13 13 13 14 14 13 13 13 13 13 13 13
10 10 10 10 10 10 10 10 9 10 10 10 10 10 10 10 10 10 10 9 9 9 9 9 9 10 10 10 11 11 12 12 12 13 13 13 13 13 13 13 13 13 12
9 9 9 9 9 9 9 9 9 9 9 9 9 9 10 10 10 10 10 9 9 9 9 9 9 9 9 9 10 10 11 11 12 12 13 13 13 13 12 12 12 12 12
8 8 8 8 8 8 8 8 8 8 8 8 9 9 9 10 10 10 9 9 9 9 9 9 9 9 9 9 9 10 10 10 11 12 12 13 13 13 12 12 12 12 11
8 7 7 7 7 7 7 7 7 7 7 8 8 8 8 9 9 9 9 9 9 9 9 9 9 10 9 9 9 9 10 10 10 11 11 12 12 13 13 12 12 12 12
7 7 7 7 6 6 6 6 6 6 7 7 7 7 7 8 8 9 9 9 9 9 9 9 9 9 9 9 9 9 9 10 10 10 11 11 12 12 12 13 12 12 11
7 7 6 6 6 6 6 6 6 6 6 6 6 6 7 7 8 8 8 8 8 8 8 8 8 9 8 8 8 8 9 9 10 10 11 11 11 11 12 12 12 11 11
6 6 6 6 5 5 5 5 5 5 6 6 6 6 6 7 7 7 8 8 8 8 8 8 8 8 8 8 8 8 9 9 10 10 10 11 11 11 11 12 12 11 11
6 5 5 5 5 5 5 5 5 5 5 5 6 6 6 6 7 7 7 7 8 8 9 9 9 8 8 8 8 8 8 9 9 10 10 10 11 11 11 11 11 12 11
5 5 5 5 5 5 5 5 5 5 5 5 5 5 6 6 6 6 7 7 8 8 8 9 9 8 8 8 8 8 8 8 9 9 10 10 10 11 11 11 11 11 11
5 5 5 5 5 5 5 5 5 5 5 5 5 5 6 6 6 6 6 7 7 7 8 8 8 8 8 8 8 8 8 8 8 9 9 10 10 10 10 11 11 11 11
5 5 5 5 5 5 5 5 5 5 5 5 5 5 5 6 6 6 6 6 7 7 7 7 8 8 8 8 8 8 8 8 8 9 9 10 10 10 10 10 10 10 10
5 5 5 5 5 5 5 5 5 5 5 5 5 5 5 5 6 6 6 6 7 7 7 7 7 7 7 7 8 8 8 8 8 8 9 9 10 10 10 10 10 10 10
5 5 5 5 5 5 5 5 5 5 5 5 5 5 5 5 5 5 6 6 6 7 7 7 7 7 8 8 8 8 8 8 8 8 9 9 9 9 10 10 10 10 9
5 5 5 5 5 5 5 5 5 5 5 5 5 5 5 5 5 5 6 6 6 6 7 7 7 8 8 8 8 8 8 8 8 8 9 9 9 9 9 9 9 9 9
5 6 5 6 6 6 6 6 6 5 5 5 5 5 5 5 5 5 6 6 6 6 6 7 7 7 8 8 8 8 8 8 8 8 8 9 9 9 9 9 9 9 9
6 6 6 6 6 6 6 6 6 6 6 5 5 5 5 5 5 5 5 6 6 6 6 7 7 7 7 7 7 7 7 8 8 8 8 8 9 9 9 9 9 9 9
6 6 6 6 6 6 6 6 6 6 6 6 5 5 5 5 5 5 6 6 6 6 7 7 7 7 7 7 7 7 7 7 8 8 8 8 8 8 8 9 9 9 9
6 6 6 6 6 6 6 6 6 6 6 6 6 5 5 5 6 6 6 6 6 6 7 7 7 7 7 7 7 7 7 7 7 8 8 8 8 8 8 9 9 9 9
6 6 6 6 6 6 6 6 6 6 6 6 6 6 6 6 6 6 6 6 6 6 6 6 6 7 7 7 7 7 7 7 7 8 8 8 8 8 9 9 9 9 10
6 6 7 7 7 6 7 7 7 7 6 6 6 6 6 6 6 6 6 6 6 6 6 6 6 6 7 7 7 7 7 7 8 8 8 8 8 9 9 9 9 9 10
6 7 7 7 7 7 7 7 7 7 7 7 6 6 6 6 6 6 7 7 7 7 7 6 6 7 7 7 7 7 7 7 8 8 8 9 9 9 9 9 10 10 10
6 7 7 7 7 7 7 7 7 7 7 7 7 6 6 7 7 7 7 7 7 7 7 7 7 7 7 7 7 7 7 8 8 8 9 9 9 9 10 10 10 10 10
6 7 7 7 7 7 7 7 7 7 7 7 7 7 7 7 7 7 7 7 7 7 7 7 7 7 7 7 7 7 8 8 8 8 9 9 9 10 10 10 10 10 10
Wind_Speed
15 15 15 15 15 15 15 15 14 14 13 13 12 11 11 10 9 8 8 7 8 8 8 8 9 9 8 7 8 9 9 9 9 6 4 4 4 4 4 4 5 5 8
16 16 16 16 16 17 17 16 16 16 15 16 15 14 14 13 12 11 11 10 10 10 9 9 9 8 9 8 8 10 9 9 9 9 6 5 6 6 5 5 5 6 8
18 18 18 18 18 18 18 17 17 16 16 17 17 17 16 15 14 13 12 12 11 11 10 10 10 9 10 9 9 9 9 9 9 9 8 6 5 6 6 6 7 6 8
19 20 20 19 19 19 19 18 17 17 17 17 18 18 17 17 16 15 14 13 12 12 11 11 10 11 11 10 9 10 9 8 9 10 9 7 6 7 7 7 6 6 6
20 20 20 20 20 19 19 18 18 17 18 17 18 18 18 17 16 16 15 15 14 13 13 12 12 11 9 9 8 8 9 9 8 9 10 9 8 8 9 7 7 7 6
20 21 20 20 20 19 19 19 18 17 17 16 17 18 18 17 15 14 15 15 13 14 13 13 12 12 12 12 11 10 10 10 10 10 10 11 11 11 10 10 9 8 5
20 20 20 19 19 19 19 19 18 17 16 16 16 17 18 17 13 14 16 15 15 14 14 12 12 12 13 13 14 15 14 15 13 12 12 12 11 12 13 14 13 11 7
20 20 19 19 18 18 18 18 17 15 15 15 15 16 16 16 14 16 16 17 16 15 15 14 14 12 12 12 12 13 13 14 15 15 14 13 11 9 12 13 12 9 9
19 19 19 18 18 18 18 17 16 14 14 14 13 14 15 14 13 16 16 15 15 17 16 15 14 14 11 10 12 13 13 13 13 13 13 12 8 6 8 9 11 12 9
19 19 19 18 18 18 17 17 15 14 14 13 13 13 14 14 13 15 17 13 15 14 14 14 14 14 10 13 13 14 14 13 12 12 13 12 12 11 12 13 14 14 11
19 18 18 17 17 17 16 14 13 12 12 12 13 12 12 12 12 15 16 13 13 13 12 12 12 15 13 14 13 13 11 10 10 10 11 11 11 11 13 12 12 14 13
18 18 17 17 15 14 14 13 13 12 11 11 11 11 10 10 11 13 16 16 13 12 11 11 9 15 15 14 13 11 8 7 10 9 10 10 10 11 11 12 11 9 7
17 17 16 16 14 13 12 12 11 10 9 8 8 8 8 8 8 12 15 16 15 12 10 6 4 11 12 12 13 11 10 10 11 11 10 9 9 10 10 10 10 8 8
17 16 15 14 13 12 10 9 8 8 7 7 7 7 7 7 7 9 10 11 13 13 12 9 10 10 10 9 9 11 11 11 11 11 9 8 7 9 11 11 11 12 11
16 15 14 12 12 10 9 7 7 6 5 6 5 5 5 5 4 5 7 8 9 10 10 9 10 10 11 11 10 10 10 11 11 10 9 8 8 10 11 12 12 13 11
14 13 11 10 10 9 8 7 4 5 5 5 6 5 3 0 3 4 4 5 4 6 8 9 10 10 11 11 11 11 10 10 11 10 9 9 9 11 12 12 12 13 13
14 13 10 10 9 9 8 7 5 1 2 2 2 2 2 0 3 5 5 6 6 8 9 10 10 10 10 10 9 9 9 10 9 9 9 10 10 11 13 14 13 13 13
14 12 10 8 8 8 7 7 5 3 1 1 2 2 2 3 4 6 8 8 5 7 9 9 8 8 8 8 8 8 8 8 8 9 10 10 11 12 13 14 14 15 15
12 10 10 8 7 7 7 6 4 4 2 1 3 4 5 5 5 6 8 6 7 7 7 7 6 7 7 7 7 7 7 7 8 9 9 11 12 13 13 14 14 17 16
10 10 11 9 7 7 6 5 4 3 2 2 2 3 4 5 4 5 6 6 5 6 6 5 5 5 5 5 5 5 6 6 7 8 10 10 12 12 14 15 15 15 14
10 9 10 8 6 6 6 5 4 3 3 3 3 4 2 2 3 4 5 4 4 4 4 4 4 4 4 4 4 5 6 6 7 8 10 11 12 13 13 14 15 15 14
9 9 8 7 6 6 6 4 4 4 4 4 4 4 2 2 2 2 3 3 3 2 2 3 3 3 3 4 4 5 5 6 7 9 11 12 13 13 14 14 15 14 14
9 9 8 7 6 4 4 4 4 4 4 4 3 2 2 1 2 2 2 2 2 3 3 3 3 3 3 3 4 4 5 7 8 11 12 13 13 14 14 15 17 17 16
9 9 8 7 6 5 4 4 4 4 4 4 3 3 3 2 2 2 1 1 1 2 3 4 4 6 6 5 4 5 6 7 10 11 14 14 14 14 14 15 16 18 17
8 8 7 6 6 5 5 5 5 5 5 4 4 3 3 2 1 1 2 2 2 2 4 5 6 7 8 8 8 9 9 8 8 11 12 13 15 15 16 16 16 17 16
8 8 7 6 5 5 5 5 5 5 4 4 3 3 3 2 2 2 2 3 3 4 5 6 8 9 9 9 11 12 10 9 8 7 10 14 14 14 15 15 18 16 18
Wind_Direction
296 293 290 285 281 275 269 266 264 262 258 252 247 244 241 237 233 230 238 240 243 249 251 250 250 248 242 237 233 229 227 232 239 236 216 185 183 183 146 131 121 108 95
301 296 291 287 284 280 276 272 268 264 258 253 249 245 244 241 235 233 235 234 233 237 239 241 245 247 244 243 238 233 227 227 235 238 225 207 194 175 155 145 131 112 102
303 299 294 290 286 282 279 276 271 266 262 258 252 247 245 243 238 235 237 237 235 235 233 233 238 239 241 240 237 237 231 225 228 236 230 215 193 169 154 141 128 120 111
303 299 295 292 289 286 283 279 274 268 264 258 252 248 245 242 239 235 234 235 237 236 234 233 232 234 235 239 237 238 240 237 228 231 231 217 197 176 169 159 147 141 128
302 298 295 293 291 287 284 280 275 270 265 260 253 248 243 240 237 234 234 234 235 236 234 231 231 229 234 235 243 241 236 235 233 231 229 220 204 184 186 177 160 143 128
301 298 296 295 292 289 286 281 277 271 266 263 257 251 244 240 227 215 228 238 236 237 237 234 231 221 221 222 236 245 246 241 236 236 235 227 214 201 188 177 163 160 156
301 299 298 295 293 292 289 285 280 275 268 262 256 252 249 244 223 202 211 233 238 236 236 235 236 229 211 222 221 225 234 238 242 245 246 242 226 206 191 184 183 182 163
303 301 300 297 294 292 288 285 282 278 272 268 262 255 250 244 215 203 204 224 237 237 235 234 236 241 227 223 229 231 234 232 229 233 242 246 246 224 199 192 179 155 132
305 304 302 300 297 293 289 285 282 278 272 265 259 255 251 245 215 202 201 225 231 233 233 233 233 235 219 201 229 237 240 240 230 226 236 245 255 240 201 178 164 156 149
308 307 305 302 298 294 290 286 282 277 272 268 260 251 248 244 218 200 202 223 227 228 227 230 227 232 214 192 226 235 239 239 238 223 221 226 227 213 194 187 177 171 158
310 308 305 303 300 294 289 285 282 277 273 267 262 253 245 241 220 199 199 221 225 226 228 227 224 197 204 199 222 239 245 252 243 238 227 219 211 204 198 194 190 182 174
312 308 306 305 302 298 295 290 285 279 272 264 257 253 242 233 225 201 196 215 234 230 230 232 221 178 192 201 216 234 239 246 247 238 228 217 208 199 194 190 187 187 180
313 310 309 307 302 300 295 292 289 282 270 262 254 248 241 228 211 194 194 207 223 232 235 230 168 166 183 204 220 221 223 232 237 234 225 219 209 194 181 172 163 149 134
313 312 310 309 306 304 298 292 289 287 278 268 260 253 245 229 213 199 200 203 210 222 229 202 175 180 214 236 209 208 223 230 230 229 222 215 198 183 174 164 157 148 140
315 312 312 310 308 308 306 297 294 289 285 278 274 266 257 242 214 197 208 208 209 211 212 212 215 211 212 218 222 221 220 220 223 224 213 203 195 182 170 163 159 155 151
318 318 317 314 315 317 316 313 282 274 289 269 263 279 294 38 135 169 199 207 196 188 210 217 218 218 219 221 221 219 217 220 219 213 204 195 191 178 166 162 162 160 155
319 319 318 319 321 324 325 324 325 281 223 255 254 251 270 223 162 174 177 171 174 180 213 225 225 223 223 225 226 225 221 219 213 207 199 189 184 172 164 162 163 159 155
322 321 320 320 324 326 329 330 333 340 355 132 131 121 155 172 176 174 165 163 176 203 222 226 225 223 222 226 225 222 223 220 211 202 192 182 175 168 163 162 163 159 155
326 329 328 327 327 330 334 338 344 353 6 116 131 119 121 135 146 162 178 203 198 204 218 226 223 223 225 225 222 217 216 213 202 190 182 174 169 163 160 159 158 156 155
326 325 324 327 331 336 342 347 358 10 26 75 104 122 148 165 163 169 198 216 212 210 212 219 224 225 225 220 212 205 204 197 185 180 173 168 162 158 155 156 156 158 160
328 330 323 330 342 346 350 357 7 19 43 74 84 85 46 186 178 183 195 206 214 216 212 218 221 218 210 207 200 195 192 184 176 167 159 158 156 153 153 154 156 159 160
329 334 342 348 352 359 357 9 24 34 48 73 95 121 163 214 183 192 195 195 208 219 218 218 212 202 193 192 184 184 174 166 162 155 153 152 151 150 151 154 157 159 156
333 339 349 356 2 358 356 24 40 49 60 77 89 105 142 150 171 191 206 205 196 191 186 185 187 183 167 158 162 166 158 149 148 149 146 146 149 152 154 155 156 155 157
336 343 354 358 4 11 20 34 47 56 62 70 79 83 92 112 143 154 183 178 156 155 159 161 162 153 149 151 149 145 139 135 139 142 143 145 148 149 151 153 156 158 160
344 349 356 2 9 18 24 33 44 52 59 66 71 73 78 90 101 115 122 131 130 120 121 129 139 143 146 145 134 125 117 122 134 139 144 144 144 147 151 154 155 156 158
351 357 359 6 16 30 39 44 50 54 60 72 76 71 64 69 75 86 104 116 128 130 127 125 129 132 133 131 124 116 113 115 124 140 147 144 146 148 150 151 152 155 156
Height
1483 1480 1478 1476 1474 1472 1470 1469 1468 1467 1466 1465 1465 1464 1464 1463 1463 1463 1463 1463 1463 1464 1465 1467 1468 1471 1473 1475 1478 1480 1482 1484 1486 1488 1488 1489 1489 1490 1490 1491 1492 1493 1494
1477 1474 1471 1469 1467 1465 1463 1462 1460 1459 1459 1458 1458 1458 1458 1458 1458 1458 1458 1458 1458 1459 1459 1460 1462 1464 1466 1468 1471 1474 1476 1478 1481 1483 1484 1485 1485 1486 1487 1489 1490 1490 1491
1470 1467 1463 1461 1459 1456 1455 1453 1452 1451 1450 1450 1450 1450 1451 1452 1452 1452 1452 1453 1453 1453 1454 1455 1456 1458 1460 1462 1464 1467 1470 1472 1475 1477 1479 1481 1482 1483 1484 1486 1487 1488 1489
1462 1459 1455 1452 1450 1447 1445 1444 1443 1441 1441 1441 1441 1442 1442 1444 1445 1446 1446 1447 1447 1448 1449 1450 1451 1453 1454 1456 1458 1461 1464 1466 1469 1471 1474 1476 1478 1479 1481 1483 1484 1486 1488
1455 1451 1447 1444 1441 1438 1436 1434 1433 1432 1431 1431 1432 1432 1433 1435 1436 1438 1440 1441 1442 1443 1444 1445 1446 1447 1448 1451 1453 1455 1458 1460 1462 1465 1468 1471 1473 1474 1476 1479 1481 1483 1485
1448 1443 1439 1435 1432 1429 1426 1424 1423 1421 1421 1421 1421 1422 1423 1425 1427 1429 1432 1434 1435 1437 1438 1439 1441 1441 1442 1445 1447 1449 1452 1454 1456 1459 1462 1465 1467 1470 1472 1474 1477 1479 1482
1440 1436 1431 1427 1423 1420 1417 1415 1413 1411 1411 1410 1411 1412 1413 1416 1418 1421 1424 1427 1429 1431 1432 1433 1435 1436 1437 1439 1441 1443 1445 1447 1450 1453 1456 1459 1462 1464 1467 1469 1473 1476 1479
1433 1429 1424 1419 1415 1411 1408 1406 1403 1402 1401 1400 1401 1402 1403 1406 1409 1412 1416 1419 1422 1424 1426 1427 1429 1431 1432 1434 1436 1438 1440 1441 1443 1446 1449 1453 1457 1460 1462 1465 1468 1472 1476
1427 1422 1417 1412 1407 1403 1399 1397 1394 1393 1392 1391 1391 1392 1394 1397 1400 1403 1407 1411 1414 1416 1418 1421 1423 1425 1427 1428 1431 1432 1434 1436 1438 1440 1443 1446 1450 1453 1456 1460 1463 1467 1471
1420 1415 1410 1405 1399 1395 1391 1388 1386 1384 1383 1383 1383 1383 1385 1388 1391 1395 1399 1403 1406 1409 1411 1413 1416 1418 1421 1422 1425 1427 1428 1430 1433 1435 1437 1439 1442 1446 1450 1453 1457 1462 1465
1414 1408 1403 1398 1392 1388 1383 1380 1378 1376 1375 1375 1375 1375 1377 1379 1383 1386 1390 1395 1398 1402 1404 1407 1409 1411 1414 1416 1418 1421 1422 1425 1427 1429 1431 1433 1436 1439 1443 1447 1452 1457 1461
1408 1402 1397 1391 1386 1382 1378 1374 1371 1370 1368 1367 1368 1368 1370 1372 1375 1379 1383 1388 1392 1395 1398 1401 1404 1405 1407 1410 1412 1414 1416 1419 1421 1423 1425 1426 1429 1433 1437 1441 1447 1452 1457
1403 1397 1391 1386 1381 1376 1372 1368 1366 1364 1362 1362 1362 1362 1364 1366 1369 1372 1377 1381 1385 1389 1393 1396 1398 1400 1402 1404 1406 1408 1411 1413 1415 1417 1418 1420 1423 1427 1432 1437 1442 1447 1453
1398 1391 1386 1381 1376 1371 1367 1364 1361 1359 1358 1358 1358 1358 1359 1361 1364 1367 1371 1375 1379 1383 1387 1390 1392 1394 1396 1399 1401 1402 1404 1406 1409 1411 1413 1415 1418 1422 1426 1431 1436 1442 1448
1394 1388 1382 1377 1372 1368 1364 1361 1358 1356 1355 1355 1354 1355 1356 1358 1360 1363 1366 1370 1374 1378 1381 1384 1386 1389 1390 1393 1395 1396 1398 1400 1402 1404 1407 1410 1413 1416 1421 1426 1432 1438 1444
1390 1384 1379 1374 1370 1366 1362 1359 1356 1354 1353 1352 1352 1353 1354 1355 1357 1360 1363 1366 1370 1373 1377 1379 1381 1383 1385 1386 1388 1390 1392 1394 1396 1398 1401 1404 1408 1411 1416 1422 1428 1435 1441
1388 1382 1377 1373 1368 1364 1361 1358 1355 1353 1352 1351 1351 1351 1352 1354 1355 1358 1360 1363 1366 1369 1372 1374 1376 1378 1379 1381 1383 1384 1386 1388 1389 1392 1394 1398 1402 1407 1411 1418 1425 1432 1439
1386 1381 1376 1372 1368 1364 1361 1358 1355 1353 1352 1351 1351 1351 1352 1353 1354 1356 1359 1362 1364 1366 1368 1370 1371 1373 1374 1376 1377 1379 1380 1382 1384 1386 1389 1393 1397 1403 1408 1415 1422 1429 1436
1385 1380 1375 1371 1368 1364 1361 1358 1355 1353 1352 1352 1352 1352 1352 1353 1354 1356 1358 1360 1362 1364 1365 1367 1368 1369 1370 1371 1372 1374 1375 1377 1379 1382 1385 1389 1394 1399 1405 1413 1421 1428 1435
1384 1379 1375 1371 1368 1364 1361 1358 1356 1354 1353 1353 1353 1353 1353 1354 1355 1356 1358 1359 1361 1362 1363 1364 1365 1366 1366 1367 1368 1370 1371 1373 1375 1378 1382 1387 1392 1398 1404 1412 1420 1427 1435
1383 1379 1375 1371 1368 1365 1362 1360 1358 1356 1355 1354 1354 1354 1354 1355 1356 1357 1358 1359 1360 1361 1362 1362 1363 1363 1364 1364 1366 1367 1368 1370 1373 1376 1380 1386 1392 1398 1405 1413 1420 1428 1436
1383 1380 1376 1372 1369 1366 1364 1362 1360 1358 1357 1356 1356 1356 1356 1356 1357 1357 1358 1358 1359 1359 1360 1360 1361 1362 1362 1363 1364 1365 1367 1369 1371 1375 1380 1386 1392 1399 1407 1414 1422 1429 1436
1384 1380 1377 1374 1371 1368 1366 1364 1363 1361 1360 1359 1359 1358 1358 1358 1358 1358 1358 1358 1358 1358 1359 1359 1360 1361 1362 1363 1364 1366 1367 1370 1373 1377 1382 1388 1395 1402 1409 1416 1423 1430 1436
1385 1382 1378 1375 1373 1370 1368 1367 1365 1364 1363 1362 1361 1360 1360 1359 1359 1359 1359 1359 1358 1358 1359 1360 1361 1362 1363 1364 1366 1368 1370 1373 1377 1381 1387 1393 1399 1405 1412 1418 1425 1431 1438
1386 1383 1380 1377 1375 1373 1371 1369 1368 1367 1366 1365 1364 1363 1362 1362 1361 1361 1361 1361 1360 1361 1361 1362 1363 1365 1366 1368 1370 1372 1374 1378 1382 1387 1392 1398 1403 1409 1415 1421 1427 1433 1439
1387 1385 1382 1380 1377 1375 1374 1373 1371 1370 1369 1368 1367 1366 1365 1365 1364 1364 1364 1364 1364 1364 1365 1366 1367 1368 1370 1372 1375 1377 1381 1385 1389 1393 1398 1403 1408 1413 1419 1424 1429 1435 1440